![]() |
EMODnet Physics ERDDAP
Easier access to scientific data |
log in|
Brought to you by EMODnet Physics |
| Dataset Title: | NDBC - Collection of dew point temperature (DEWT) TimeSeries - IN SITU MultiPointTimeSeriesObservation
|
| Institution: | NDBC (Dataset ID: TS_DEWT_NDBC) |
| Information: | Summary
| License
| FGDC
| ISO 19115
| Metadata
| Background
| Subset
| Data Access Form
| Make a graph
|
| Name | Last modified | Size | Description | |
|---|---|---|---|---|
| Parent Directory | - | - | ||
| 51207_TS_DEWT_012013.nc | 27-Oct-2024 04:19 | 1262192 | ||
| 51207_TS_DEWT_012014.nc | 27-Oct-2024 04:19 | 1267579 | ||
| 51207_TS_DEWT_012015.nc | 27-Oct-2024 04:19 | 1262637 | ||
| 51207_TS_DEWT_012016.nc | 27-Oct-2024 04:19 | 1261398 | ||
| 51207_TS_DEWT_012017.nc | 27-Oct-2024 04:19 | 1264914 | ||
| 51207_TS_DEWT_012019.nc | 27-Oct-2024 04:19 | 1112667 | ||
| 51207_TS_DEWT_012020.nc | 27-Oct-2024 04:19 | 1102217 | ||
| 51207_TS_DEWT_012021.nc | 27-Oct-2024 04:19 | 1112870 | ||
| 51207_TS_DEWT_012022.nc | 27-Oct-2024 04:19 | 1114897 | ||
| 51207_TS_DEWT_012023.nc | 27-Oct-2024 04:20 | 1113514 | ||
| 51207_TS_DEWT_012024.nc | 13-Oct-2024 23:30 | 1100991 | ||
| 51207_TS_DEWT_022013.nc | 27-Oct-2024 04:20 | 1265082 | ||
| 51207_TS_DEWT_022014.nc | 27-Oct-2024 04:20 | 1262530 | ||
| 51207_TS_DEWT_022015.nc | 27-Oct-2024 04:20 | 976000 | ||
| 51207_TS_DEWT_022016.nc | 27-Oct-2024 04:20 | 1265998 | ||
| 51207_TS_DEWT_022017.nc | 27-Oct-2024 04:20 | 1263040 | ||
| 51207_TS_DEWT_022019.nc | 27-Oct-2024 04:20 | 1264843 | ||
| 51207_TS_DEWT_022020.nc | 27-Oct-2024 04:20 | 674864 | ||
| 51207_TS_DEWT_022021.nc | 27-Oct-2024 04:20 | 633644 | ||
| 51207_TS_DEWT_022022.nc | 27-Oct-2024 04:20 | 1113999 | ||
| 51207_TS_DEWT_022023.nc | 27-Oct-2024 04:20 | 1112254 | ||
| 51207_TS_DEWT_032013.nc | 27-Oct-2024 04:20 | 683213 | ||
| 51207_TS_DEWT_032014.nc | 27-Oct-2024 04:20 | 674057 | ||
| 51207_TS_DEWT_032015.nc | 27-Oct-2024 04:20 | 646283 | ||
| 51207_TS_DEWT_032016.nc | 27-Oct-2024 04:20 | 639494 | ||
| 51207_TS_DEWT_032017.nc | 27-Oct-2024 04:20 | 429727 | ||
| 51207_TS_DEWT_032019.nc | 27-Oct-2024 04:20 | 428765 | ||
| 51207_TS_DEWT_032020.nc | 27-Oct-2024 04:20 | 429832 | ||
| 51207_TS_DEWT_032021.nc | 27-Oct-2024 04:20 | 418800 | ||
| 51207_TS_DEWT_032022.nc | 27-Oct-2024 04:21 | 418799 | ||
| 51207_TS_DEWT_042013.nc | 27-Oct-2024 04:21 | 418800 | ||
| 51207_TS_DEWT_042014.nc | 27-Oct-2024 04:21 | 425491 | ||
| 51207_TS_DEWT_042015.nc | 27-Oct-2024 04:21 | 423059 | ||
| 51207_TS_DEWT_042016.nc | 27-Oct-2024 04:21 | 422802 | ||
| 51207_TS_DEWT_042017.nc | 27-Oct-2024 04:21 | 422385 | ||
| 51207_TS_DEWT_042018.nc | 27-Oct-2024 04:21 | 421163 | ||
| 51207_TS_DEWT_042019.nc | 27-Oct-2024 04:21 | 429358 | ||
| 51207_TS_DEWT_042020.nc | 27-Oct-2024 04:21 | 429355 | ||
| 51207_TS_DEWT_042021.nc | 27-Oct-2024 04:21 | 418799 | ||
| 51207_TS_DEWT_042022.nc | 27-Oct-2024 04:21 | 418799 | ||
| 51207_TS_DEWT_052013.nc | 27-Oct-2024 04:21 | 429495 | ||
| 51207_TS_DEWT_052014.nc | 27-Oct-2024 04:21 | 421270 | ||
| 51207_TS_DEWT_052015.nc | 27-Oct-2024 04:21 | 420417 | ||
| 51207_TS_DEWT_052016.nc | 27-Oct-2024 04:21 | 608732 | ||
| 51207_TS_DEWT_052017.nc | 27-Oct-2024 04:21 | 991558 | ||
| 51207_TS_DEWT_052018.nc | 27-Oct-2024 04:21 | 429617 | ||
| 51207_TS_DEWT_052019.nc | 27-Oct-2024 04:22 | 429835 | ||
| 51207_TS_DEWT_052020.nc | 27-Oct-2024 04:22 | 426195 | ||
| 51207_TS_DEWT_052022.nc | 27-Oct-2024 04:22 | 422521 | ||
| 51207_TS_DEWT_062013.nc | 27-Oct-2024 04:22 | 429818 | ||
| 51207_TS_DEWT_062014.nc | 27-Oct-2024 04:22 | 424171 | ||
| 51207_TS_DEWT_062015.nc | 27-Oct-2024 04:22 | 423429 | ||
| 51207_TS_DEWT_062016.nc | 27-Oct-2024 04:22 | 428106 | ||
| 51207_TS_DEWT_062017.nc | 27-Oct-2024 04:22 | 429833 | ||
| 51207_TS_DEWT_062018.nc | 27-Oct-2024 04:22 | 429832 | ||
| 51207_TS_DEWT_062019.nc | 27-Oct-2024 04:22 | 429830 | ||
| 51207_TS_DEWT_062020.nc | 27-Oct-2024 04:22 | 429812 | ||
| 51207_TS_DEWT_062021.nc | 27-Oct-2024 04:22 | 421133 | ||
| 51207_TS_DEWT_062022.nc | 27-Oct-2024 04:22 | 429832 | ||
| 51207_TS_DEWT_072013.nc | 27-Oct-2024 04:22 | 429481 | ||
| 51207_TS_DEWT_072014.nc | 27-Oct-2024 04:22 | 429767 | ||
| 51207_TS_DEWT_072015.nc | 27-Oct-2024 04:22 | 1026782 | ||
| 51207_TS_DEWT_072016.nc | 27-Oct-2024 04:22 | 1144179 | ||
| 51207_TS_DEWT_072017.nc | 27-Oct-2024 04:23 | 1258755 | ||
| 51207_TS_DEWT_072018.nc | 27-Oct-2024 04:23 | 429280 | ||
| 51207_TS_DEWT_072019.nc | 27-Oct-2024 04:23 | 425472 | ||
| 51207_TS_DEWT_072020.nc | 27-Oct-2024 04:23 | 429490 | ||
| 51207_TS_DEWT_072021.nc | 27-Oct-2024 04:23 | 429496 | ||
| 51207_TS_DEWT_072022.nc | 27-Oct-2024 04:23 | 423857 | ||
| 51207_TS_DEWT_082013.nc | 27-Oct-2024 04:23 | 429495 | ||
| 51207_TS_DEWT_082014.nc | 27-Oct-2024 04:23 | 429496 | ||
| 51207_TS_DEWT_082015.nc | 27-Oct-2024 04:23 | 429493 | ||
| 51207_TS_DEWT_082016.nc | 27-Oct-2024 04:23 | 429489 | ||
| 51207_TS_DEWT_082017.nc | 27-Oct-2024 04:23 | 429493 | ||
| 51207_TS_DEWT_082018.nc | 27-Oct-2024 04:23 | 429492 | ||
| 51207_TS_DEWT_082019.nc | 27-Oct-2024 04:23 | 429492 | ||
| 51207_TS_DEWT_082020.nc | 27-Oct-2024 04:23 | 429494 | ||
| 51207_TS_DEWT_082021.nc | 27-Oct-2024 04:23 | 429493 | ||
| 51207_TS_DEWT_082022.nc | 27-Oct-2024 04:23 | 429496 | ||
| 51207_TS_DEWT_082023.nc | 27-Oct-2024 04:23 | 429607 | ||
| 51207_TS_DEWT_092013.nc | 27-Oct-2024 04:23 | 429496 | ||
| 51207_TS_DEWT_092014.nc | 27-Oct-2024 04:23 | 1029311 | ||
| 51207_TS_DEWT_092015.nc | 27-Oct-2024 04:23 | 443506 | ||
| 51207_TS_DEWT_092016.nc | 27-Oct-2024 04:23 | 669725 | ||
| 51207_TS_DEWT_092018.nc | 27-Oct-2024 04:23 | 995674 | ||
| 51207_TS_DEWT_092019.nc | 27-Oct-2024 04:24 | 1107759 | ||
| 51207_TS_DEWT_092020.nc | 27-Oct-2024 04:24 | 429622 | ||
| 51207_TS_DEWT_092021.nc | 27-Oct-2024 04:24 | 429609 | ||
| 51207_TS_DEWT_092022.nc | 27-Oct-2024 04:24 | 429838 | ||
| 51207_TS_DEWT_092023.nc | 27-Oct-2024 04:24 | 429834 | ||
| 51207_TS_DEWT_102012.nc | 27-Oct-2024 04:24 | 429831 | ||
| 51207_TS_DEWT_102013.nc | 27-Oct-2024 04:24 | 429838 | ||
| 51207_TS_DEWT_102015.nc | 27-Oct-2024 04:24 | 429829 | ||
| 51207_TS_DEWT_102016.nc | 27-Oct-2024 04:24 | 429834 | ||
| 51207_TS_DEWT_102018.nc | 27-Oct-2024 04:24 | 429623 | ||
| 51207_TS_DEWT_102019.nc | 27-Oct-2024 04:24 | 429833 | ||
| 51207_TS_DEWT_102020.nc | 27-Oct-2024 04:24 | 429838 | ||
| 51207_TS_DEWT_102021.nc | 27-Oct-2024 04:24 | 429834 | ||
| 51207_TS_DEWT_102022.nc | 27-Oct-2024 04:24 | 429836 | ||
| 51207_TS_DEWT_102023.nc | 27-Oct-2024 04:24 | 429833 | ||
| 51207_TS_DEWT_112012.nc | 27-Oct-2024 04:24 | 429836 | ||
| 51207_TS_DEWT_112013.nc | 27-Oct-2024 04:24 | 429814 | ||
| 51207_TS_DEWT_112014.nc | 27-Oct-2024 04:24 | 429834 | ||
| 51207_TS_DEWT_112015.nc | 27-Oct-2024 04:24 | 1262850 | ||
| 51207_TS_DEWT_112016.nc | 27-Oct-2024 04:25 | 1108077 | ||
| 51207_TS_DEWT_112018.nc | 27-Oct-2024 04:25 | 1251920 | ||
| 51207_TS_DEWT_112019.nc | 27-Oct-2024 04:25 | 1144088 | ||
| 51207_TS_DEWT_112020.nc | 27-Oct-2024 04:25 | 1263604 | ||
| 51207_TS_DEWT_112021.nc | 27-Oct-2024 04:25 | 2678220 | ||
| 51207_TS_DEWT_112022.nc | 27-Oct-2024 04:25 | 429617 | ||
| 51207_TS_DEWT_112023.nc | 27-Oct-2024 04:25 | 429621 | ||
| 51207_TS_DEWT_122012.nc | 27-Oct-2024 04:25 | 429815 | ||
| 51207_TS_DEWT_122013.nc | 27-Oct-2024 04:25 | 429833 | ||
| 51207_TS_DEWT_122014.nc | 27-Oct-2024 04:25 | 429835 | ||
| 51207_TS_DEWT_122015.nc | 27-Oct-2024 04:25 | 429782 | ||
| 51207_TS_DEWT_122016.nc | 27-Oct-2024 04:25 | 429834 | ||
| 51207_TS_DEWT_122018.nc | 27-Oct-2024 04:25 | 429835 | ||
| 51207_TS_DEWT_122019.nc | 27-Oct-2024 04:25 | 429832 | ||
| 51207_TS_DEWT_122020.nc | 27-Oct-2024 04:25 | 429836 | ||
| 51207_TS_DEWT_122021.nc | 27-Oct-2024 04:26 | 429831 | ||
| 51207_TS_DEWT_122022.nc | 27-Oct-2024 04:26 | 429805 | ||
| 51207_TS_DEWT_122023.nc | 27-Oct-2024 04:26 | 429838 | ||